GAOFEN-8

Last updated on Wed May 14 2025 00:02:27 GMT+0000 (Coordinated Universal Time)

1 40701U 15030A 25133.59445191 .00013903 00000+0 45620-3 0 9998 2 40701 97.6868 302.7627 0013142 167.0887 193.0693 15.31642755550025
UTC large
Height (km)
Speed (km/s)
/
Latitude / Longitude
Inclination (degrees)
Orbital Period (minutes)
Azimuth
Elevation
Range (km)
Doppler Factor

Next 0 passes for location: London (51.5072 / 0.1276)

Sorry there are no passes over London.